Weather in Lardos

Greece     36°05′41″N   28°00′57″E
temp.,
°C
wind,
m/s
gust,
m/s
humid.,
%
clouds,
%
prec.,
mm/h
press.,
hPa
HPBL,
m
3 march, wed
wed323:00+11nw68610 0.0 1020717
02:00+10nnw69634 0.0 1019667
05:00+10nnw8106422 0.1 1018729
08:00+11n786011 0.1 1018833
11:00+12ne44490 0.0 10191067
14:00+14ene234415 0.0 10191054
17:00+14w44510 0.0 1019485
20:00+14nw56550 0.0 1020282
4 march, thu
thu423:00+14nw45570 0.0 1021258
02:00+13nnw33550 0.0 1020174
05:00+12n33540 0.0 1020138
08:00+13nnw22510 0.0 1020147
11:00+14s22480 0.0 1020336
14:00+16w66530 0.0 1018484
17:00+15wnw78570 0.0 1018305
20:00+13wnw79670 0.0 1019340
5 march, fri
fri523:00+13nw56630 0.0 1020292
02:00+13nw45670 0.0 1020306
05:00+13wnw57690 0.0 1020398
08:00+14nw35620 0.0 1021374
11:00+16wsw55600 0.0 1022629
14:00+16wsw76600 0.0 1021576
17:00+16sw66671 0.0 1020432
20:00+14sw557450 0.0 1022465
6 march, sat
sat623:00+14ssw4571100 0.0 1022636
02:00+14ssw567591 0.0 1022776
05:00+15s4569100 0.0 1022735
08:00+15ssw5775100 0.0 1023848
11:00+16ssw5672100 0.0 1023929
14:00+16ssw667591 0.0 1021770
17:00+16ssw44787 0.0 1021624
20:00+16ssw22783 0.0 1022371
7 march, sun
sun723:00+15sse12780 0.0 1022381
02:00+15s12810 0.0 1021415
05:00+15nw11815 0.0 1020244
08:00+15n11792 0.0 1021135
11:00+16se21740 0.0 1020276
14:00+17sw44630 0.0 1018518
17:00+17w56620 0.0 1017289
20:00+15wnw56720 0.0 1018267